Location: Équennes
(49.7375°N, 1.9622°E)
Time: 19:38:38
(UTC+00:00)

Cosmos 1703 - Visible Passes

Search period start: 01 October 2023 00:00
Search period end: 11 October 2023 00:00
Orbit: 504 x 515 km, 82.5° (Epoch: 30 September)

Date Brightness Start Highest point End Pass type
(mag) Time Alt. Az. Time Alt. Az. Time Alt. Az.
01 Oct 5.1 19:20:17 10° NNE 19:21:54 18° NE 19:21:54 18° NE visible
01 Oct 5.8 20:55:28 10° NNW 20:56:47 19° NW 20:56:47 19° NW visible
02 Oct 5.1 19:03:27 10° NNE 19:05:07 16° NE 19:05:07 16° NE visible
02 Oct 5.4 20:38:17 10° NNW 20:39:59 23° NW 20:39:59 23° NW visible
03 Oct 5.1 18:46:43 10° NNE 18:48:19 14° NE 18:48:19 14° NE visible
03 Oct 5.0 20:21:07 10° NNW 20:23:12 29° NNW 20:23:12 29° NNW visible
04 Oct 5.2 18:30:10 10° NE 18:31:32 12° ENE 18:31:32 12° ENE visible
04 Oct 4.5 20:03:58 10° NNW 20:06:25 37° NNW 20:06:25 37° NNW visible
05 Oct 3.9 19:46:50 10° N 19:49:39 47° N 19:49:39 47° N visible
06 Oct 3.4 19:29:41 10° N 19:32:55 57° NNE 19:32:55 57° NNE visible
06 Oct 6.5 21:07:24 10° WNW 21:07:48 11° WNW 21:07:48 11° WNW visible
07 Oct 3.3 19:12:34 10° N 19:16:12 54° ENE 19:16:12 54° ENE visible
07 Oct 6.2 20:49:28 10° NW 20:51:06 14° WNW 20:51:06 14° WNW visible
08 Oct 3.5 18:55:28 10° N 18:59:08 43° ENE 18:59:33 41° E visible
08 Oct 5.9 20:31:51 10° NW 20:34:23 17° W 20:34:26 17° W visible
09 Oct 3.8 18:38:22 10° N 18:41:54 34° ENE 18:42:56 29° ESE visible
09 Oct 5.5 20:14:21 10° NW 20:17:16 21° W 20:17:50 20° W visible
10 Oct 4.1 18:21:17 10° N 18:24:37 28° ENE 18:26:25 19° ESE visible
10 Oct 5.3 19:56:54 10° NNW 20:00:08 26° W 20:01:19 22° WSW visible
